Imperial, CA

11:52 AM PDT on September 24, 2017 (GMT -0700)
Imperial County

Weather History for KIPL - March, 2014

Change the Weather History Date:

Sunday, March 2, 2014

  Actual Average Record
Temperature  
Mean Temperature 62 °F -  
Max Temperature 72 °F 74 °F 91 °F (2016)
Min Temperature 53 °F 50 °F 35 °F (2002)
Degree Days  
Heating Degree Days 2    
Growing Degree Days 12 (Base 50)    
Moisture  
Dew Point 44 °F    
Average Humidity 53    
Maximum Humidity 69    
Minimum Humidity 34    
Precipitation  
Precipitation 0.00 in - - ()
Sea Level Pressure  
Sea Level Pressure 30.05 in    
Wind  
Wind Speed 5 mph (SW)    
Max Wind Speed 9 mph    
Max Gust Speed -    
Visibility 10 miles    
Events      
Averages and records for this station are not official NWS values.
T = Trace of Precipitation, MM = Missing Value Source: NWS Daily Summary

Daily Weather History Graph

Daily Weather History Graph

Search for Another Location

Airport or City:

Trip Planner

Search our weather history database for the weather conditions in past years. The results will help you decide how hot, cold, wet, or windy it might be!

Date:

Astronomy

Mar. 02, 2014 Rise Set
Actual Time 6:08 AM PST 5:40 PM PST
Civil Twilight 5:44 AM PST 6:05 PM PST
Nautical Twilight 5:15 AM PST 6:33 PM PST
Astronomical Twilight 4:47 AM PST 7:02 PM PST
Moon 6:49 AM PST (3/2) 7:32 PM PST (3/2)
Length of Visible Light 12h 21m
Length of Day
11h 31m
Waxing Crescent, 3% of the Moon is Illuminated
Mar 2
Waxing Crescent
Mar 8
First Quarter
Mar 16
Full
Mar 23
Last Quarter
Mar 30
New

Hourly Weather History & Observations

Time (PST) Temp. Dew Point Humidity Pressure Visibility Wind Dir Wind Speed Gust Speed Precip Events Conditions
12:53 AM 55.0 °F 44.1 °F 67% 29.95 in 10.0 mi Variable 4.6 mph - N/A   Clear
1:53 AM 53.1 °F 43.0 °F 69% 29.96 in 10.0 mi West 5.8 mph - N/A   Clear
2:53 AM 55.9 °F 44.1 °F 64% 29.98 in 10.0 mi WSW 9.2 mph - N/A   Clear
3:53 AM 55.0 °F 43.0 °F 64% 29.99 in 10.0 mi West 9.2 mph - N/A   Clear
4:53 AM 53.1 °F 43.0 °F 69% 30.01 in 10.0 mi WSW 6.9 mph - N/A   Clear
5:53 AM 53.1 °F 43.0 °F 69% 30.03 in 10.0 mi SW 4.6 mph - N/A   Clear
6:53 AM 55.0 °F 42.1 °F 62% 30.04 in 10.0 mi SSE 3.5 mph - N/A   Clear
7:53 AM 57.0 °F 46.0 °F 67% 30.07 in 10.0 mi SSE 6.9 mph - N/A   Clear
8:53 AM 62.1 °F 45.0 °F 53% 30.10 in 10.0 mi South 3.5 mph - N/A   Clear
9:53 AM 64.9 °F 44.1 °F 47% 30.10 in 10.0 mi Calm Calm - N/A   Clear
10:53 AM 66.9 °F 45.0 °F 45% 30.11 in 10.0 mi Variable 4.6 mph - N/A   Clear
11:53 AM 68.0 °F 43.0 °F 40% 30.08 in 10.0 mi ESE 6.9 mph - N/A   Clear
12:53 PM 70.0 °F 42.1 °F 36% 30.06 in 10.0 mi Calm Calm - N/A   Clear
1:53 PM 70.0 °F 41.0 °F 35% 30.04 in 10.0 mi Calm Calm - N/A   Clear
2:53 PM 71.1 °F 41.0 °F 34% 30.03 in 10.0 mi Calm Calm - N/A   Clear
3:53 PM 72.0 °F 42.1 °F 34% 30.03 in 10.0 mi ESE 8.1 mph - N/A   Clear
4:53 PM 70.0 °F 42.1 °F 36% 30.04 in 10.0 mi ESE 4.6 mph - N/A   Clear
5:53 PM 68.0 °F 46.0 °F 45% 30.06 in 10.0 mi NE 4.6 mph - N/A   Clear
6:53 PM 66.0 °F 45.0 °F 47% 30.08 in 10.0 mi WSW 4.6 mph - N/A   Scattered Clouds
7:53 PM 64.0 °F 46.9 °F 54% 30.08 in 10.0 mi WSW 5.8 mph - N/A   Clear
8:53 PM 61.0 °F 46.9 °F 60% 30.09 in 10.0 mi NW 4.6 mph - N/A   Clear
9:53 PM 61.0 °F 46.0 °F 58% 30.08 in 10.0 mi NNW 3.5 mph - N/A   Clear
10:53 PM 57.9 °F 46.0 °F 65% 30.08 in 10.0 mi WSW 3.5 mph - N/A   Clear
11:53 PM 57.0 °F 45.0 °F 64% 30.06 in 10.0 mi West 3.5 mph - N/A   Clear